When you browse on this site, cookies collect data to enhance your experience and personalize the content and advertising you see.
Visit our Privacy Policy to learn more. By continuing to use the site, you agree to this use of cookies and data.
  • In Netherlands
  • List of Countries
  • For 7 days
  • Water Temperature
  • Weather Map
  • Weather Widgets
  • user-avatar
    Login

    Hourly Weather Sofia

    Today, 19 September, Thursday

    Time Temperature Precipitation Wind Pressure Humidity
    00:00 +14°C° 0 mm 1 mps 713 mmHg 50%
    01:00 +14°C° 0 mm 1 mps 713 mmHg 50%
    02:00 +14°C° 0 mm 1 mps 713 mmHg 48%
    03:00 +14°C° 0 mm 1 mps 713 mmHg 49%
    04:00 +13°C° 0 mm 1 mps 713 mmHg 51%
    05:00 +13°C° 0 mm 1 mps 713 mmHg 53%
    06:00 +13°C° 0 mm 1 mps 713 mmHg 53%
    07:00 +14°C° 0 mm 1 mps 714 mmHg 52%
    08:00 +13°C° 0 mm 1 mps 714 mmHg 61%
    09:00 +14°C° 0.2 mm 1 mps 714 mmHg 62%
    10:00 +14°C° 0.2 mm 1 mps 714 mmHg 63%
    11:00 +14°C° 0.2 mm 1 mps 714 mmHg 64%
    12:00 +15°C° 0 mm 1 mps 714 mmHg 62%
    13:00 +16°C° 0 mm 1 mps 714 mmHg 60%
    14:00 +18°C° 0 mm 1 mps 713 mmHg 58%
    15:00 +17°C° 0 mm 2 mps 713 mmHg 59%
    16:00 +17°C° 0 mm 2 mps 713 mmHg 60%
    17:00 +16°C° 0 mm 2 mps 713 mmHg 61%
    18:00 +15°C° 0.2 mm 2 mps 713 mmHg 67%
    19:00 +14°C° 0.2 mm 2 mps 713 mmHg 74%
    20:00 +13°C° 0.2 mm 2 mps 714 mmHg 80%
    21:00 +12°C° 0.5 mm 2 mps 714 mmHg 82%
    22:00 +10°C° 0.5 mm 2 mps 714 mmHg 84%
    23:00 +9°C° 0.5 mm 2 mps 714 mmHg 87%

    Tomorrow, 20 September, Friday

    Time Temperature Precipitation Wind Pressure Humidity
    00:00 +9°C° 0.6 mm 2 mps 714 mmHg 88%
    01:00 +9°C° 0.6 mm 2 mps 714 mmHg 89%
    02:00 +9°C° 0.6 mm 2 mps 714 mmHg 89%
    03:00 +10°C° 0.3 mm 1 mps 714 mmHg 88%
    04:00 +10°C° 0.3 mm 1 mps 714 mmHg 87%
    05:00 +10°C° 0.3 mm 1 mps 714 mmHg 85%
    06:00 +10°C° 0 mm 1 mps 714 mmHg 81%
    07:00 +10°C° 0 mm 2 mps 714 mmHg 77%
    08:00 +10°C° 0 mm 2 mps 714 mmHg 73%
    09:00 +12°C° 0 mm 2 mps 715 mmHg 60%
    10:00 +13°C° 0 mm 3 mps 715 mmHg 48%
    11:00 +16°C° 0 mm 3 mps 715 mmHg 36%
    12:00 +17°C° 0 mm 3 mps 715 mmHg 32%
    13:00 +18°C° 0 mm 3 mps 715 mmHg 29%
    14:00 +19°C° 0 mm 3 mps 714 mmHg 25%
    15:00 +18°C° 0 mm 3 mps 714 mmHg 25%
    16:00 +18°C° 0 mm 3 mps 714 mmHg 26%
    17:00 +18°C° 0 mm 3 mps 714 mmHg 26%
    18:00 +14°C° 0 mm 3 mps 714 mmHg 30%
    19:00 +13°C° 0 mm 2 mps 715 mmHg 34%
    20:00 +11°C° 0 mm 1 mps 715 mmHg 38%
    21:00 +10°C° 0 mm 1 mps 715 mmHg 40%
    22:00 +10°C° 0 mm 1 mps 715 mmHg 42%
    23:00 +8°C° 0 mm 0 mps 716 mmHg 44%

    Day after tomorrow, 21 September, Saturday

    Time Temperature Precipitation Wind Pressure Humidity
    00:00 +8°C° 0 mm 0 mps 716 mmHg 45%
    01:00 +8°C° 0 mm 0 mps 716 mmHg 47%
    02:00 +7°C° 0 mm 0 mps 716 mmHg 48%
    03:00 +7°C° 0 mm 0 mps 716 mmHg 50%
    04:00 +7°C° 0 mm 0 mps 716 mmHg 51%
    05:00 +6°C° 0 mm 0 mps 716 mmHg 53%
    06:00 +8°C° 0 mm 0 mps 716 mmHg 49%
    07:00 +9°C° 0 mm 0 mps 717 mmHg 45%
    08:00 +11°C° 0 mm 0 mps 717 mmHg 41%
    09:00 +13°C° 0 mm 0 mps 717 mmHg 36%
    10:00 +18°C° 0 mm 1 mps 718 mmHg 30%
    11:00 +20°C° 0 mm 1 mps 718 mmHg 24%
    12:00 +21°C° 0 mm 1 mps 718 mmHg 22%
    13:00 +22°C° 0 mm 1 mps 717 mmHg 21%
    14:00 +23°C° 0 mm 1 mps 717 mmHg 19%
    15:00 +22°C° 0 mm 1 mps 716 mmHg 19%
    16:00 +22°C° 0 mm 1 mps 716 mmHg 20%
    17:00 +21°C° 0 mm 1 mps 716 mmHg 21%
    18:00 +19°C° 0 mm 1 mps 715 mmHg 26%
    19:00 +15°C° 0 mm 1 mps 715 mmHg 32%
    20:00 +13°C° 0 mm 1 mps 715 mmHg 37%
    21:00 +12°C° 0 mm 1 mps 715 mmHg 38%
    22:00 +12°C° 0 mm 1 mps 715 mmHg 40%
    23:00 +11°C° 0 mm 1 mps 715 mmHg 41%

    22 September, Sunday

    Time Temperature Precipitation Wind Pressure Humidity
    00:00 +11°C° 0 mm 1 mps 715 mmHg 42%
    01:00 +10°C° 0 mm 1 mps 715 mmHg 44%
    02:00 +10°C° 0 mm 1 mps 715 mmHg 45%
    03:00 +10°C° 0 mm 1 mps 715 mmHg 46%
    04:00 +9°C° 0 mm 1 mps 715 mmHg 48%
    05:00 +9°C° 0 mm 1 mps 714 mmHg 50%
    06:00 +10°C° 0 mm 1 mps 714 mmHg 48%
    07:00 +12°C° 0 mm 1 mps 715 mmHg 45%
    08:00 +13°C° 0 mm 1 mps 715 mmHg 43%
    09:00 +16°C° 0 mm 1 mps 715 mmHg 37%
    10:00 +20°C° 0 mm 1 mps 715 mmHg 31%
    11:00 +23°C° 0 mm 1 mps 716 mmHg 25%
    12:00 +24°C° 0 mm 1 mps 715 mmHg 23%
    13:00 +25°C° 0 mm 1 mps 715 mmHg 21%
    14:00 +26°C° 0 mm 1 mps 714 mmHg 19%
    15:00 +26°C° 0 mm 1 mps 714 mmHg 20%
    16:00 +25°C° 0 mm 1 mps 713 mmHg 21%
    17:00 +25°C° 0 mm 1 mps 713 mmHg 22%
    18:00 +22°C° 0 mm 1 mps 713 mmHg 27%
    19:00 +19°C° 0 mm 1 mps 713 mmHg 32%
    20:00 +15°C° 0 mm 1 mps 713 mmHg 38%
    21:00 +15°C° 0 mm 1 mps 713 mmHg 39%
    22:00 +14°C° 0 mm 1 mps 713 mmHg 41%
    23:00 +14°C° 0 mm 1 mps 713 mmHg 43%

    23 September, Monday

    Time Temperature Precipitation Wind Pressure Humidity
    00:00 +13°C° 0 mm 1 mps 713 mmHg 44%
    01:00 +13°C° 0 mm 1 mps 713 mmHg 46%
    02:00 +12°C° 0 mm 1 mps 713 mmHg 47%
    03:00 +12°C° 0 mm 1 mps 712 mmHg 49%
    04:00 +12°C° 0 mm 1 mps 712 mmHg 50%
    05:00 +12°C° 0 mm 1 mps 712 mmHg 52%
    06:00 +13°C° 0 mm 1 mps 712 mmHg 49%
    07:00 +14°C° 0 mm 1 mps 712 mmHg 47%
    08:00 +16°C° 0 mm 1 mps 713 mmHg 44%
    09:00 +19°C° 0 mm 1 mps 713 mmHg 39%
    10:00 +22°C° 0 mm 1 mps 713 mmHg 35%
    11:00 +25°C° 0 mm 2 mps 713 mmHg 30%
    12:00 +25°C° 0 mm 2 mps 712 mmHg 29%
    13:00 +26°C° 0 mm 2 mps 712 mmHg 29%
    14:00 +27°C° 0 mm 2 mps 711 mmHg 28%
    15:00 +26°C° 0 mm 2 mps 711 mmHg 31%
    16:00 +25°C° 0 mm 2 mps 711 mmHg 34%
    17:00 +24°C° 0 mm 2 mps 710 mmHg 37%
    18:00 +21°C° 0.1 mm 2 mps 710 mmHg 44%
    19:00 +20°C° 0.1 mm 2 mps 710 mmHg 51%
    20:00 +19°C° 0.1 mm 1 mps 710 mmHg 59%
    21:00 +19°C° 0 mm 1 mps 710 mmHg 62%
    22:00 +18°C° 0 mm 1 mps 709 mmHg 65%
    23:00 +16°C° 0 mm 1 mps 709 mmHg 68%

    24 September, Tuesday

    Time Temperature Precipitation Wind Pressure Humidity
    00:00 +16°C° 0 mm 1 mps 709 mmHg 68%
    01:00 +16°C° 0 mm 1 mps 709 mmHg 67%
    02:00 +15°C° 0 mm 1 mps 709 mmHg 67%
    03:00 +15°C° 0 mm 1 mps 708 mmHg 69%
    04:00 +15°C° 0 mm 1 mps 707 mmHg 71%
    05:00 +14°C° 0 mm 1 mps 707 mmHg 72%
    06:00 +15°C° 0.3 mm 1 mps 707 mmHg 74%
    07:00 +15°C° 0.3 mm 1 mps 707 mmHg 76%
    08:00 +15°C° 0.3 mm 1 mps 707 mmHg 78%
    09:00 +16°C° 1.1 mm 1 mps 707 mmHg 80%
    10:00 +16°C° 1.1 mm 1 mps 707 mmHg 82%
    11:00 +16°C° 1.1 mm 1 mps 707 mmHg 84%
    12:00 +19°C° 0 mm 1 mps 707 mmHg 75%
    13:00 +22°C° 0 mm 1 mps 707 mmHg 66%
    14:00 +24°C° 0 mm 1 mps 706 mmHg 58%
    15:00 +23°C° 0.8 mm 1 mps 706 mmHg 61%
    16:00 +23°C° 0.8 mm 1 mps 706 mmHg 65%
    17:00 +22°C° 0.8 mm 1 mps 706 mmHg 68%
    18:00 +20°C° 0.7 mm 1 mps 706 mmHg 75%
    19:00 +18°C° 0.7 mm 2 mps 706 mmHg 81%
    20:00 +16°C° 0.7 mm 2 mps 706 mmHg 88%
    21:00 +16°C° 0.1 mm 1 mps 706 mmHg 90%
    22:00 +16°C° 0.1 mm 1 mps 707 mmHg 91%
    23:00 +15°C° 0.1 mm 1 mps 707 mmHg 92%
    Show more